TimeMDT,TemperatureF,Dew PointF,Humidity,Sea Level PressureIn,VisibilityMPH,Wind Direction,Wind SpeedMPH,Gust SpeedMPH,PrecipitationIn,Events,Conditions,WindDirDegrees,DateUTC
12:53 AM,34.0,7.0,32,30.16,10.0,East,6.9,-,N/A,,Clear,80,2012-10-28 06:53:00
1:53 AM,34.0,10.0,37,30.15,10.0,NE,5.8,-,N/A,,Clear,50,2012-10-28 07:53:00
2:53 AM,30.9,7.0,37,30.16,10.0,ENE,4.6,-,N/A,,Clear,60,2012-10-28 08:53:00
3:53 AM,30.0,9.0,41,30.15,10.0,East,4.6,-,N/A,,Clear,80,2012-10-28 09:53:00
4:53 AM,30.0,10.9,45,30.16,10.0,ENE,8.1,-,N/A,,Clear,70,2012-10-28 10:53:00
5:53 AM,28.0,10.0,47,30.18,10.0,NE,6.9,-,N/A,,Clear,50,2012-10-28 11:53:00
6:53 AM,28.9,10.9,47,30.20,10.0,ENE,9.2,-,N/A,,Clear,60,2012-10-28 12:53:00
7:53 AM,27.0,12.0,53,30.22,10.0,ENE,5.8,-,N/A,,Clear,70,2012-10-28 13:53:00
8:53 AM,37.9,15.1,39,30.22,10.0,East,4.6,-,N/A,,Clear,80,2012-10-28 14:53:00
9:53 AM,46.0,17.1,31,30.21,10.0,Calm,Calm,-,N/A,,Clear,0,2012-10-28 15:53:00
11:53 AM,59.0,16.0,19,30.16,10.0,SSW,13.8,-,N/A,,Clear,210,2012-10-28 17:53:00
12:53 PM,61.0,15.1,17,30.12,10.0,SSW,15.0,-,N/A,,Clear,200,2012-10-28 18:53:00
1:53 PM,64.0,15.1,15,30.09,10.0,SSW,13.8,20.7,N/A,,Clear,210,2012-10-28 19:53:00
2:53 PM,64.0,15.1,15,30.08,10.0,WSW,11.5,20.7,N/A,,Clear,240,2012-10-28 20:53:00
3:53 PM,64.0,17.1,16,30.08,10.0,WNW,13.8,-,N/A,,Clear,290,2012-10-28 21:53:00
4:53 PM,63.0,15.1,16,30.08,10.0,WNW,13.8,-,N/A,,Clear,290,2012-10-28 22:53:00
5:53 PM,59.0,14.0,17,30.09,10.0,West,10.4,-,N/A,,Clear,280,2012-10-28 23:53:00
6:53 PM,51.1,15.1,24,30.14,10.0,Calm,Calm,-,N/A,,Clear,0,2012-10-29 00:53:00
7:53 PM,46.0,15.1,29,30.19,10.0,ENE,5.8,-,N/A,,Clear,60,2012-10-29 01:53:00
8:53 PM,41.0,15.1,35,30.18,10.0,ENE,8.1,-,N/A,,Clear,70,2012-10-29 02:53:00
9:53 PM,37.9,14.0,38,30.19,10.0,ENE,9.2,-,N/A,,Clear,60,2012-10-29 03:53:00
10:53 PM,37.0,14.0,39,30.17,10.0,ENE,9.2,-,N/A,,Clear,60,2012-10-29 04:53:00
11:53 PM,35.1,15.1,44,30.17,10.0,ENE,5.8,-,N/A,,Clear,60,2012-10-29 05:53:00